www.pogodaiklimat.ru

Погода и климат >> Архив погоды >> Австрия >> Ландекк


ПОГОДА в Ландекке

  • Прогноз погоды в Ландекке
  • Монитор погоды в Ландекке

АРХИВ ПОГОДЫ в Ландекке

Время (UTC), дата Ветер
(напр.,м/с)
 
Видим.   Явления Облачность Т
(С)
Тd
(С)
f
(%)
Тe
(С)
Тes
(С)
Комфортность P
(гПа)
Po
(гПа)
Тmin
(С)
Tmax
(С)
R
(мм)
R24
(мм)
S
(см)
13 9.06 С 3 н/о н/о +25.0 +12.2 45 +27 +27 жарко 1015.6 926.9 0.0
14 9.06 С 1 н/о н/о +24.0 +8.3 37 +25 +25 комфорт 1015.8 926.7
15 9.06 СВ 1 н/о н/о +23.4 +9.1 40 +25 +25 комфорт 1015.6 926.4 0.0
16 9.06 штиль 0 н/о н/о +23.4 +10.1 43 +25 +25 комфорт 1015.2 926.0
17 9.06 штиль 0 н/о н/о +23.0 +10.4 45 +25 +25 комфорт 1015.0 925.7
18 9.06 СЗ 1 н/о н/о +22.6 +9.8 44 +24 +24 комфорт 1015.3 925.9 +11.1 +26.0 0.0
19 9.06 СЗ 1 н/о н/о +20.8 +9.9 50 +24 +24 комфорт 1015.7 925.7
20 9.06 Ю 1 н/о осадки н/о +16.6 +13.5 82 +17 +17 1019.1 927.7 0.9
21 9.06 Ю 2 н/о в посл. час осадки н/о +15.8 +13.1 84 +16 +16 1019.6 927.9 0.9
22 9.06 ЮЗ 2 н/о н/о +14.8 +12.6 87 +14 +14 1019.1 927.1
23 9.06 ЮЗ 1 н/о н/о +13.9 +12.1 89 +14 +14 1019.3 927.0
00 10.06 З 1 н/о {осадки} н/о +13.6 +11.9 89 +14 +14 1018.9 926.6 0.9
01 10.06 Ю 1 н/о н/о +13.0 +11.4 90 +13 +13 1018.7 926.2
02 10.06 Ю 1 н/о н/о +12.9 +11.3 90 +13 +13 1018.4 925.9
03 10.06 Ю 2 н/о н/о +12.8 +11.3 91 +12 +12 1018.0 925.5
04 10.06 Ю 2 н/о н/о +12.9 +11.2 89 +12 +12 1017.7 925.2 0.0
05 10.06 Ю 1 н/о н/о +13.2 +11.0 87 +13 +13 1017.2 924.9 0.0
06 10.06 Ю 1 н/о н/о +14.8 +11.7 82 +15 +15 1016.3 924.6 +12.7 +22.7 0.9
07 10.06 ЮВ 3 н/о н/о +15.5 +12.2 81 +15 +15 1016.1 924.6
08 10.06 ЮВ 3 н/о н/о +18.3 +12.7 70 +19 +19 1014.2 923.7
09 10.06 Ю 3 н/о н/о +20.2 +12.7 62 +22 +22 комфорт 1012.3 922.5
10 10.06 В 1 н/о н/о +22.0 +12.1 53 +24 +24 комфорт 1011.2 922.0
11 10.06 СВ 2 н/о н/о +22.7 +13.3 55 +26 +26 жарко 1009.6 920.8 0.0
12 10.06 СВ 2 н/о н/о +22.9 +13.0 54 +26 +26 жарко 1008.3 919.7 0.0
13 10.06 штиль 0 н/о н/о +22.8 +13.6 56 +26 +26 жарко 1007.1 918.6
14 10.06 штиль 0 н/о н/о +24.7 +13.8 51 +27 +27 жарко 1006.9 918.9 0.0
15 10.06 ЮВ 6
{15}
н/о в посл. час осадки н/о +20.5 +12.9 62 +23 +23 комфорт 1010.4 920.9 0.0
16 10.06 Ю 4 н/о н/о +21.4 +10.7 50 +23 +23 комфорт 1008.8 919.6
17 10.06 В 1 н/о н/о +21.8 +11.3 51 +24 +24 комфорт 1007.6 918.7
18 10.06 СЗ 1
{15}
н/о {осадки} н/о +20.4 +11.5 57 +23 +23 комфорт 1007.9 918.6 +14.3 +25.3 0.0
19 10.06 ЮВ 1 н/о н/о +19.3 +12.1 63 +22 +22 комфорт 1008.3 918.6
20 10.06 ЮВ 3 н/о н/о +17.9 +12.2 69 +18 +18 1008.6 918.5
21 10.06 штиль 0 н/о н/о +16.2 +11.7 75 +16 +16 1008.4 917.8
22 10.06 Ю 2 н/о н/о +15.4 +11.3 77 +15 +15 1008.8 917.9
23 10.06 З 1 н/о н/о +14.5 +11.0 80 +15 +15 1009.0 917.8
00 11.06 штиль 0 н/о н/о +14.5 +11.1 80 +14 +14 1009.1 917.9
01 11.06 З 2 н/о н/о +14.1 +11.0 82 +14 +14 1009.2 917.9
02 11.06 З 1 н/о н/о +15.1 +10.0 72 +16 +16 1009.3 918.2
03 11.06 штиль 0 н/о н/о +16.1 +7.4 56 +16 +16 1010.2 919.3
04 11.06 С 2 н/о в посл. час осадки н/о +13.4 +7.8 69 +13 +13 1011.8 919.9 0.1
05 11.06 СЗ 1 н/о н/о +12.9 +8.3 74 +13 +13 1011.5 919.5
06 11.06 штиль 0 н/о {осадки} н/о +15.5 +8.7 64 +15 +15 1009.8 918.8 +12.3 +20.9 0.1
07 11.06 С 1 н/о н/о +17.7 +8.3 54 +19 +19 1008.4 918.1
08 11.06 С 3 н/о н/о +20.3 +10.6 54 +22 +22 комфорт 1006.7 917.4
09 11.06 СВ 3 н/о н/о +21.7 +11.4 52 +24 +24 комфорт 1005.2 916.5
10 11.06 СВ 2 н/о н/о +23.3 +12.3 50 +26 +26 жарко 1003.6 915.5
11 11.06 СВ 1 н/о н/о +24.8 +12.6 47 +27 +27 жарко 1002.4 914.8
12 11.06 штиль 0 н/о н/о +28.2 +3.0 20 +26 +26 жарко 1001.1 914.3 0.0
13 11.06 ЮЗ 3 н/о н/о +29.5 +2.7 18 +27 +27 жарко 1000.7 914.3
14 11.06 ЮВ 2 н/о н/о +29.2 +3.7 20 +27 +27 жарко 1000.5 914.1
15 11.06 штиль 0 н/о н/о +29.1 +4.2 20 +27 +27 жарко 1000.5 914.1
16 11.06 ЮВ 5
{16}
н/о н/о +26.5 +2.7 21 +25 +25 комфорт 1004.1 916.6
17 11.06 Ю 3
{16}
н/о осадки н/о +16.6 +11.1 70 +16 +16 1010.7 920.0 1
18 11.06 ЮВ 6
{16}
н/о ливневой дождь {осадки} н/о +16.3 +11.6 74 +15 +15 1009.8 919.1 +15.3 +30.3 2
19 11.06 Ю 6
{13}
н/о осадки н/о +15.0 +12.0 82 +13 +13 1011.7 920.4 1
20 11.06 Ю 2 н/о осадки н/о +14.2 +11.5 84 +14 +14 1011.8 920.3 2
21 11.06 Ю 2
{13}
н/о {осадки} н/о +13.1 +11.3 89 +12 +12 1011.0 919.2 3
22 11.06 ЮЗ 1 н/о осадки н/о +13.2 +11.2 88 +13 +13 1012.3 920.4 0.1
23 11.06 ЮЗ 1 н/о в посл. час осадки н/о +13.0 +11.3 89 +13 +13 1011.3 919.5 1
00 12.06 Ю 1
{13}
н/о ливневой дождь н/о +12.4 +11.1 92 +12 +12 1011.0 919.0 5
01 12.06 ЮВ 1 н/о н/о +12.2 +11.0 92 +12 +12 1010.6 918.6 0.0
02 12.06 Ю 1 н/о н/о +12.1 +10.8 92 +12 +12 1010.0 918.0
03 12.06 Ю 1 н/о н/о +12.0 +10.8 92 +12 +12 1008.6 916.7 0.0
04 12.06 штиль 0 н/о н/о +11.6 +10.6 94 +11 +11 1008.5 916.5
05 12.06 штиль 0 н/о н/о +11.8 +10.8 94 +11 +11 1007.7 915.8
06 12.06 ЮВ 1
{13}
н/о н/о +13.7 +11.4 86 +14 +14 1006.7 915.5 +11.6 +17.7 5
07 12.06 ЮВ 2 н/о н/о +14.9 +11.1 78 +15 +15 1005.7 914.9
08 12.06 С 1 н/о н/о +15.3 +12.5 83 +16 +16 1005.8 915.2
09 12.06 В 1 н/о н/о +17.9 +12.8 72 +19 +19 1004.6 914.9
10 12.06 В 1 н/о н/о +19.5 +12.9 66 +22 +22 комфорт 1004.0 914.8
11 12.06 СЗ 1 н/о н/о +21.6 +11.2 52 +24 +24 комфорт 1003.9 915.2
12 12.06 З 3 н/о н/о +21.7 +9.8 47 +23 +23 комфорт 1004.6 915.9
13 12.06 С 2 н/о н/о +21.9 +11.4 51 +24 +24 комфорт 1005.4 916.7
14 12.06 С 4 н/о н/о +20.4 +12.2 59 +22 +22 комфорт 1006.8 917.6 0.0
15 12.06 СВ 3 н/о н/о +21.3 +13.3 60 +24 +24 комфорт 1006.6 917.7 0.0
16 12.06 С 1 н/о н/о +20.3 +12.6 61 +23 +23 комфорт 1006.7 917.5
17 12.06 СЗ 2 н/о н/о +20.4 +11.0 55 +23 +23 комфорт 1007.5 918.2
18 12.06 ЮВ 1 н/о в посл. час осадки н/о +18.9 +13.4 70 +21 +21 комфорт 1008.1 918.4 +13.0 +22.9 0.0
19 12.06 СЗ 2 н/о н/о +18.0 +11.7 67 +19 +19 1009.7 919.5
20 12.06 ЮВ 1 н/о н/о +17.1 +11.9 71 +18 +18 1010.7 920.2
21 12.06 ЮВ 1 н/о н/о +15.2 +11.9 81 +16 +16 1012.0 920.8
22 12.06 З 1 н/о н/о +14.2 +11.4 83 +15 +15 1012.9 921.3
23 12.06 штиль 0 н/о н/о +14.0 +11.2 83 +14 +14 1013.2 921.5
00 13.06 ЮВ 1 н/о н/о +13.7 +11.1 84 +14 +14 1013.7 921.8
01 13.06 ЮВ 2 н/о н/о +13.3 +10.8 85 +13 +13 1013.8 921.8
02 13.06 ЮВ 1 н/о н/о +13.3 +10.5 83 +13 +13 1013.9 921.9
03 13.06 ЮВ 3 н/о н/о +13.0 +10.4 84 +12 +12 1014.2 922.1
04 13.06 ЮВ 3 н/о н/о +13.0 +10.1 83 +12 +12 1014.7 922.5
05 13.06 Ю 3 н/о н/о +13.3 +9.9 80 +12 +12 1015.1 923.0
06 13.06 ЮВ 2 н/о н/о +14.3 +10.0 75 +14 +14 1014.5 922.7 +12.9 +19.0
07 13.06 В 1 н/о н/о +17.1 +10.6 66 +18 +18 1013.4 922.6
08 13.06 СВ 1 н/о н/о +19.7 +11.0 57 +22 +22 комфорт 1011.8 921.9
09 13.06 СВ 2 н/о н/о +21.5 +12.1 55 +24 +24 комфорт 1010.3 921.1
10 13.06 СВ 2 н/о н/о +23.3 +12.5 51 +26 +26 жарко 1009.1 920.5
11 13.06 С 2 н/о н/о +25.0 +10.6 40 +26 +26 жарко 1007.9 919.8
12 13.06 ЮВ 3 н/о н/о +27.0 -3.1 14 +24 +24 комфорт 1006.9 919.2
13 13.06 ЮВ 4 н/о н/о +27.5 -0.4 16 +25 +25 комфорт 1006.7 919.2 0.0
14 13.06 ЮВ 2 н/о н/о +28.5 -5.1 11 +25 +25 комфорт 1006.6 919.3
15 13.06 ЮВ 3 н/о н/о +28.4 -7.5 9 +25 +25 комфорт 1006.5 919.2 0.0
16 13.06 Ю 3 н/о н/о +27.3 -4.8 12 +24 +24 комфорт 1007.3 919.6
17 13.06 Ю 2 н/о н/о +26.2 -3.6 14 +24 +24 комфорт 1007.9 919.9
18 13.06 Ю 1 н/о н/о +24.0 -2.4 17 +22 +22 комфорт 1009.7 920.9 +14.1 +28.9 0.0
19 13.06 СЗ 1 н/о н/о +20.8 +8.6 45 +23 +23 комфорт 1012.3 922.6 0.0
20 13.06 СЗ 1 н/о н/о +19.4 +9.3 52 +21 +21 комфорт 1014.4 924.1
21 13.06 ЮЗ 1 н/о н/о +17.0 +8.2 56 +18 +18 1016.3 925.1 0.0
22 13.06 Ю 1 н/о н/о +15.5 +7.9 61 +16 +16 1017.7 925.9
23 13.06 ЮВ 1 н/о н/о +13.8 +7.9 68 +14 +14 1018.9 926.5
00 14.06 Ю 2 н/о н/о +12.8 +7.3 69 +12 +12 1019.6 926.8 0.0
01 14.06 Ю 1 н/о н/о +11.8 +6.3 69 +12 +12 1020.0 926.9
02 14.06 ЮВ 1 н/о н/о +10.9 +5.6 70 +11 +11 1020.5 927.0
03 14.06 ЮВ 2 н/о н/о +10.2 +5.3 72 +9 +9 1021.1 927.3
04 14.06 ЮВ 2 н/о н/о +10.4 +4.8 68 +9 +9 1021.1 927.4
05 14.06 ЮВ 2 н/о н/о +10.3 +5.3 71 +9 +9 1021.2 927.5
06 14.06 ЮВ 3 н/о н/о +12.6 +4.8 59 +11 +11 1020.5 927.5 +10.1 +24.9 0.0
07 14.06 Ю 1 н/о н/о +18.2 +4.2 39 +19 +19 1018.5 927.4
08 14.06 СЗ 1 н/о н/о +20.9 +3.0 31 +22 +22 комфорт 1016.8 926.6
09 14.06 З 1 н/о н/о +23.9 +5.7 31 +24 +24 комфорт 1015.0 925.9
10 14.06 СВ 2 н/о н/о +25.7 +4.9 26 +25 +25 комфорт 1013.7 925.2 0.0
11 14.06 СВ 2 н/о н/о +27.6 +7.0 27 +27 +27 жарко 1012.3 924.5
12 14.06 С 2 н/о н/о +29.3 +7.3 25 +28 +28 жарко 1010.8 923.6 0.0
13 14.06 ЮВ 3 н/о н/о +31.5 +3.3 17 +29 +29 жарко 1009.3 922.7
14 14.06 ЮВ 1 н/о н/о +31.6 +2.5 16 +29 +29 жарко 1008.4 921.9
15 14.06 ЮВ 2 н/о н/о +31.2 +2.8 16 +29 +29 жарко 1008.5 921.9
16 14.06 Ю 3
{16}
н/о н/о +30.3 +1.7 16 +28 +28 жарко 1009.1 922.2
17 14.06 Ю 1 н/о н/о +28.8 +6.2 24 +28 +28 жарко 1008.3 921.1
18 14.06 Ю 1
{16}
н/о н/о +28.1 +4.9 23 +27 +27 жарко 1008.2 920.8 +12.4 +32.2 0.0
19 14.06 штиль 0 н/о н/о +24.8 +7.1 32 +25 +25 комфорт 1008.7 920.4
20 14.06 З 3 н/о н/о +22.7 +7.1 37 +24 +24 комфорт 1010.3 921.3
21 14.06 ЮЗ 1 н/о н/о +21.4 +7.0 39 +22 +22 комфорт 1012.2 922.6
22 14.06 З 2 н/о н/о +20.6 +7.6 43 +22 +22 комфорт 1011.7 922.0
23 14.06 Ю 3 н/о н/о +23.2 +6.1 33 +24 +24 комфорт 1011.0 922.0 0.0
00 15.06 ЮВ 1 н/о н/о +22.1 +7.8 40 +23 +23 комфорт 1011.6 922.3 0.0
01 15.06 ЮВ 4 н/о н/о +21.7 +8.3 42 +23 +23 комфорт 1010.6 921.3
02 15.06 Ю 6 н/о н/о +22.1 +8.1 41 +23 +23 комфорт 1010.0 920.9
03 15.06 ЮЗ 1 н/о н/о +19.9 +8.6 48 +22 +22 комфорт 1010.8 921.0
04 15.06 ЮЗ 3 н/о н/о +17.6 +8.8 56 +18 +18 1012.2 921.6
05 15.06 З 1 н/о н/о +17.6 +9.3 58 +19 +19 1012.6 922.0
06 15.06 ЮВ 1 н/о н/о +20.5 +10.4 52 +23 +23 комфорт 1011.9 922.2 +17.0 +29.3 0.0
07 15.06 СВ 1 н/о н/о +22.5 +11.5 50 +25 +25 комфорт 1011.2 922.2
08 15.06 СВ 1 н/о н/о +23.0 +12.1 50 +26 +26 жарко 1011.1 922.2
09 15.06 СВ 1 н/о н/о +24.3 +11.1 43 +26 +26 жарко 1010.6 922.1
10 15.06 С 2 н/о н/о +26.3 +11.8 40 +28 +28 жарко 1009.3 921.5
11 15.06 СВ 1 н/о н/о +26.3 +11.8 40 +28 +28 жарко 1008.9 921.1
12 15.06 СВ 2 н/о н/о +28.1 +11.7 36 +29 +29 жарко 1007.7 920.5
13 15.06 штиль 0 н/о н/о +28.2 +11.0 34 +29 +29 жарко 1007.2 920.1
14 15.06 С 2 н/о н/о +27.0 +12.4 40 +28 +28 жарко 1007.5 920.1
15 15.06 СВ 5 н/о н/о +25.6 +12.9 45 +27 +27 жарко 1008.7 920.8
16 15.06 С 3 н/о н/о +23.7 +13.1 51 +26 +26 жарко 1009.8 921.3
17 15.06 С 3 н/о н/о +22.9 +12.7 53 +26 +26 жарко 1010.3 921.5
18 15.06 ЮЗ 1 н/о в посл. час осадки н/о +18.5 +15.0 80 +20 +20 1012.3 922.1 +18.3 +28.7 1
19 15.06 З 2 н/о н/о +18.4 +15.7 84 +20 +20 1012.3 922.1
20 15.06 Ю 1 н/о н/о +17.7 +14.9 84 +19 +19 1013.4 922.9
21 15.06 штиль 0 н/о в посл. час осадки н/о +16.6 +15.0 90 +16 +16 1014.4 923.5 1
22 15.06 З 1 н/о н/о +16.3 +14.9 91 +17 +17 1014.9 923.8 0.0
23 15.06 СЗ 1 н/о н/о +16.1 +12.6 80 +17 +17 1015.6 924.3
00 16.06 Ю 1 н/о {осадки} н/о +17.3 +8.9 58 +18 +18 1016.3 925.2 1
01 16.06 С 1 н/о н/о +16.4 +8.8 61 +17 +17 1016.9 925.5
02 16.06 С 2 н/о н/о +16.5 +8.1 58 +17 +17 1017.3 925.9
03 16.06 С 2 н/о н/о +15.2 +9.5 69 +15 +15 1018.2 926.3
04 16.06 штиль 0 н/о н/о +14.3 +9.1 71 +14 +14 1018.8 926.6
05 16.06 штиль 0 н/о н/о +14.5 +10.0 74 +14 +14 1018.9 926.8
06 16.06 СВ 1 н/о н/о +15.8 +9.6 67 +17 +17 1019.3 927.5 +13.9 +19.1 1
07 16.06 С 1 н/о н/о +16.0 +10.1 68 +17 +17 1019.4 927.7
08 16.06 С 1 н/о н/о +16.8 +10.4 66 +18 +18 1019.2 927.8
09 16.06 С 1 н/о н/о +17.9 +9.7 59 +19 +19 1018.9 927.8
10 16.06 С 2 н/о н/о +19.2 +10.3 56 +21 +21 комфорт 1018.5 927.8
11 16.06 СВ 2 н/о н/о +20.7 +9.3 48 +23 +23 комфорт 1017.9 927.7
12 16.06 С 3 н/о н/о +20.8 +9.4 48 +23 +23 комфорт 1017.5 927.4
13 16.06 С 3 н/о н/о +21.2 +9.5 47 +23 +23 комфорт 1017.1 927.1
14 16.06 СВ 3 н/о н/о +21.2 +8.6 44 +22 +22 комфорт 1017.3 927.3

 

Местоположение метеостанции Ландекк (Австрия): широта 47.13 долгота 10.57 высота над уровнем моря 806 м.

В архиве по умолчанию представлена погода в Ландекке за последнюю неделю. Архивные данные за месяц целиком и за предыдущие месяцы, начиная с января 2011 года, Вы можете получить, выбрав интересующий диапазон дат из раскрывающегося списка и нажав кнопку "Ввод!".


*Определитесь, кто Вы:
робот инопланетянин человек

Внимание! Время в таблицах - всемирное. Для получения местного времени необходимо прибавить поправку, которая равна 1 ч.

Смотрите также архив погоды в соседних городах и на ближайших метеорологических станциях:

Погода в Бранде (Австрия) (13 км)
Погода в Ишгле (Австрия) (25 км)
Погода в Гальциге (Австрия) (26 км)
Погода в Варте (Австрия) (32 км)
Погода в Пицтале (Австрия) (32 км)
Погода в Брунненкогеле (Австрия) (33 км)
Погода в Гальтюре (Австрия) (34 км)
Погода в Оберстдорфе (Германия) (37 км)
Погода на Налунс Шливера (Швейцария) (41 км)
Погода в Сан Валентино Алла Мута (Италия) (42 км)

Пояснения к столбцам:

Ветер - указаны скорость ветра в м/с - средняя за 10 мин, порывы в срок и между сроками (в фигурных скобках) и направление, откуда дует ветер: С - северный, СВ - северо-восточный, В - восточный, ЮВ - юго-восточный, Ю - южный, ЮЗ - юго-западный, З - западный, СЗ - северо-западный.
Видимость - горизонтальная дальность видимости в метрах или километрах. При видимости от 1 до 10 км при отсутствии осадков обычно наблюдается дымка, при ухудшении видимости до 1 км и менее - туман. В сухую погоду видимость может ухудшаться дымом, пылью или мглою.
Явления - указаны атмосферные явления, наблюдавшиеся в срок или в последний час перед сроком; фигурными скобками обозначены явления, наблюдавшиеся между сроками (за 1-3 часа до срока); квадратными скобками обозначены град или гололедные отложения с указанием их диаметра в мм.
Облачность - указаны через наклонную черту общая и нижняя облачность в баллах и высота нижней границы облаков в метрах; квадратными скобками обозначены формы облаков: Ci - перистые, Cs - перисто-слоистые, Cc - перисто-кучевые, Ac - высококучевые, As - высокослоистые, Sc - слоисто-кучевые, Ns - слоисто-дождевые, Cu - кучевые, Cb - кучево-дождевые. Подробнее классификацию облаков см. в Атласе облаков (PDF).
T - Температура воздуха - температура, измеренная на высоте 2 м над землей.
Td - Температура точки росы - температура, при понижении до которой содержащийся в воздухе водяной пар достигнет насыщения.
f - Относительная влажность воздуха - влажноcть воздуха, измеренная на высоте 2 м над землей.
Te - Эффективная температура - температура, которую ощущает одетый по сезону человек в тени. Характеристика душности погоды. При расчете учитывается влияние влажности воздуха и скорости ветра на теплоощущения человека.
Tes - Эффективная температура на солнце - температура, которую ощущает человек, с поправкой на солнечный нагрев. Характеристика знойности погоды. Зависит от высоты солнца над горизонтом, облачности и скорости ветра. Ночью, в пасмурную погоду, а также при ветре 12 м/с и более поправка равна нулю.
P - Атмосферное давление - приведенное к уровню моря атмосферное давление.
Po - Атмосферное давление - измеренное на уровне метеостанции атмосферное давление.
Tmin - Минимальная температура - минимум температуры воздуха на высоте 2 м над землей.
Tmax - Максимальная температура - максимум температуры воздуха на высоте 2 м над землей.
R - Количество осадков - Количество выпавших осадков за период времени, мм. При наведении курсора мыши на число - период времени, за который выпало указанное количество осадков.
R24 - Количество осадков - Количество выпавших осадков за 24 часа, мм.
S - Снежный покров - Высота снежного покрова, см. При наведении курсора мыши на число - состояние снежного покрова и степень покрытия местности в баллах.